sat.trackr.live / text

‹ back to catalog

IRIDIUM 122

NORAD 42957 · 2017-061C

PAYLOAD ACTIVE UNKNOWN

§ Identity

Operator
Country
US
Launch date
2017-10-09
Launch site
AFWTR
Launch vehicle
Mass (kg)
RCS (m²)

Purposes: comms

External: N2YO · Heavens-Above · Gunter

§ Orbital elements

Epoch: 2026-05-25T02:37:34.716576Z

Period
100.40 min
Inclination
86.3989°
Eccentricity
0.0002301
Mean motion
14.34217689 rev/d
Perigee alt
776.0 km
Apogee alt
779.3 km
Semi-major
7,155.8 km
B*
1.4226e-5
RAAN
34.8334°
Arg perigee
83.7306°
Mean anomaly
276.4151°
Rev number
45,147

§ Raw data

IRIDIUM 1221 42957U 17061C   26145.10942959  .00000060  00000+0  14226-4 0  99932 42957  86.3989  34.8334 0002301  83.7306 276.4151 14.34217689451472

JSON: /api/v1/satellites/42957 · /tle

For live sub-satellite position, see the globe view (requires WebGL).

§ Visibility from observer

Set your observer location to see the next 7 days of passes ≥ 10°. The values pass through the URL so the page stays shareable.

No JS? Fill the form by hand. The geolocation button needs JavaScript.